Location: Austin
(30.3000°N, 97.7500°W)
Time: 05:44:37
(UTC-06:00)

Cosmos 2239 Rocket - Pass Details

Date: 05 February 2026
Orbit: 953 x 991 km, 82.9° (Epoch: 14 February)

Event Time Altitude Azimuth Distance (km) Brightness Sun altitude
Rises 05:36:49 0° 188° (S) 3,687 7.5 -22.4°
Reaches altitude 10° 05:39:20 10° 189° (S) 2,741 6.8 -21.9°
Maximum altitude 05:45:38 78° 276° (W) 1,012 4.4 -20.5°
Drops below altitude 10° 05:51:56 10° 2° (N) 2,739 6.8 -19.2°
Sets 05:54:27 0° 4° (N) 3,685 7.5 -18.6°
